User: anonymous   Login
Location: Unspecified
(0.0000°N, 0.0000°E)
Time: 22:00:00
(UTC+00:00)
Language:

GRIFEX - Orbit

View from above orbital plane
View from above orbital plane
View from above satellite
View from above satellite

Ground track
Ground track

The orbit data is extracted from the following two-line orbital elements,

1 40379U 15003D   17082.92334866 +.00002108 +00000-0 +99682-4 0  9990
2 40379 099.1180 248.1022 0142503 291.3372 067.2694 15.12478954117980
Epoch (UTC): 23 March 2017 22:09:37
Eccentricity: 0.0142503
inclination: 99.1180°
perigee height: 430 km
apogee height: 627 km
right ascension of ascending node: 248.1022°
argument of perigee: 291.3372°
revolutions per day: 15.12478954
mean anomaly at epoch: 67.2694°
orbit number at epoch: 11798

The dashed part of the orbit path shows where the satellite is in the earth's shadow,  

DLR